DELTA 1 DEB, 7032

Orbit data source: Space-Track

DELTA 1 DEB, 7032 is space debris in SSO originally from a launch on Tue, 06 Nov 1973 UTC launched from the Air Force Western Test Range (AFWTR). Debris objects in space refer to the collection of defunct objects orbiting the Earth. Examples of debris include non-operational satellites, rocket bodies, and fragments generated from explosions, collisions, or faulty payload assembly.

Loading next visibility...
Identifier
7032, 1973-086Y
Orbit
SSO
Country
Flag of USUS
Related business
Manufacturer
Unknown
Mission
Spacecraft
Bus & Motor
Unknown
Mass
Unknown
Launch date (UTC)
1973-11-06 (53 years ago)
Launch vehicle
Unknown
Launch site
Air Force Western Test Range (AFWTR)
Object type
Payload
Rocket body
Debris
Shape & HBR
Unknown shape, 1.7 m
Radar Cross Section
Large (>1 m²)

Expand to show TLE details & history
Last TLE update: 22 hours ago

TLE from 22 hours ago
0 DELTA 1 DEB
1 07032U 73086Y   26206.50962331 -.00000013  00000-0  26760-3 0  9990
2 07032 102.4214 216.5154 0030019  53.2953 101.3173 12.34781764375679
Epoch: 2026-07-25T12:13Z
TLE epoch observation values (Epoch: 2026-07-25T12:13:51.453Z)
Latitude
24.45148°
Longitude
-84.45007°
Altitude
1,536.142 km
Speed
7.098 km/s
True Right ascension
02h 48m 56s
True Declination
24° 20' 06"
Sunlit
Object was in daylight at epoch
Visualization orbit readout
Latitude
Unknown
Longitude
Unknown
Altitude
Unknown
Speed
Unknown
Apparent Right ascension
Unknown
Apparent Declination
Unknown
Sunlit
N/A
Visualization observer readout
Local Sidereal Time
23:16:47
Azimuth
Unknown
Elevation
Unknown
Doppler factor
Unknown
Orbital elements
Apogee altitude
1,550.137 km
Perigee altitude
1,502.68 km
Semi-major axis
7,904.546 km
Eccentricity
0.003
Inclination
102.4214°
RAAN
216.5154°
Arg. of periapsis
53.2953°
True anomaly
101.65435°
Mean anomaly
101.3173°
Eccentric anomaly
101.48585°
Mean motion
3.08836 °/min
Orbital period
116.57 mins
BSTAR
0.0002676
Loading maneuver chart data...
Computing Atmospheric mass density...
Loading historical data...
Loading historical data...
Loading historical data...
Loading historical data...
Loading historical data...
Loading historical data...
Loading historical data...

Documentation

Showing up to 5 results
|